Temperature
6 6 6 6 6 6 6 6 6 7 7 8 8 7 8 9 9 9 9 9 9 9 8 8 8 8 7 7 7 7 7 7 7 6 6 6 5 5 5 5 5 4 4 4
5 6 6 6 6 6 6 6 6 7 7 8 8 8 8 8 8 8 9 9 9 8 8 8 8 7 7 7 7 7 7 6 6 6 5 5 5 5 5 5 4 4 4 4
5 5 6 6 7 6 6 6 6 7 8 7 7 7 8 8 8 8 8 8 8 8 8 8 7 7 7 7 7 6 6 6 5 5 5 5 5 4 4 4 4 4 3 3
4 5 6 8 8 7 7 7 6 6 6 7 7 8 8 8 8 8 8 8 8 8 8 7 7 7 7 6 6 6 6 5 5 5 5 4 4 4 4 4 3 3 3 3
4 4 5 7 7 7 7 6 6 6 6 6 7 7 7 8 8 8 8 8 8 8 7 7 7 6 6 6 6 5 5 5 5 4 4 4 4 4 4 3 3 3 3 2
4 5 6 7 7 7 7 6 6 6 5 5 6 4 5 7 7 8 8 7 7 7 7 7 6 6 6 5 5 5 5 5 4 4 4 3 3 3 3 3 3 2 2 2
3 4 5 6 6 7 7 7 7 7 6 6 5 5 7 7 7 7 7 7 7 7 6 6 6 6 5 5 5 5 4 4 4 4 3 3 3 3 3 2 2 2 2 2
3 4 5 6 6 6 6 7 7 7 6 6 6 6 6 6 6 6 6 6 6 6 6 6 5 5 5 5 4 4 4 4 3 3 3 3 2 2 2 2 2 1 1 1
4 5 6 6 6 7 7 6 7 6 6 6 6 6 6 6 5 5 5 5 5 5 5 5 5 4 4 4 4 4 3 3 3 3 2 2 2 2 2 1 1 1 1 1
3 4 5 6 6 6 6 6 6 6 6 6 5 5 5 5 5 5 5 4 4 4 4 4 4 4 4 3 3 3 3 3 2 2 2 2 1 1 1 1 1 1 0 0
3 3 4 5 6 6 6 6 5 5 5 5 5 5 4 4 4 4 4 4 4 4 4 4 3 3 3 3 3 3 2 2 2 2 1 1 1 1 1 0 0 -0 -0 -0
3 4 3 4 5 5 5 5 4 4 4 4 4 4 4 4 3 3 3 3 3 3 3 3 3 3 3 2 2 2 2 1 1 1 1 1 1 1 0 0 -0 -1 -1 -1
4 4 4 4 4 4 4 4 4 3 3 3 3 3 3 3 3 3 3 2 2 2 2 2 2 2 2 2 1 1 1 1 1 1 0 0 0 -0 -0 -0 -1 -1 -1 -1
4 3 3 3 3 3 3 3 3 3 3 3 3 2 2 2 2 2 2 2 1 1 1 1 1 2 1 1 1 1 0 0 0 0 -0 -0 -0 -1 -1 -1 -1 -1 -1 -2
3 2 2 2 2 2 2 2 2 2 2 2 2 2 1 1 1 1 1 1 1 1 1 1 1 1 0 0 0 0 0 -0 -0 -0 -1 -1 -1 -1 -2 -2 -2 -2 -2 -2
2 2 1 1 1 1 1 1 1 1 1 1 1 1 1 1 1 1 0 0 0 0 0 0 0 0 -0 -0 -0 -0 -0 -1 -1 -1 -1 -1 -2 -2 -2 -2 -2 -3 -3 -3
0 0 0 0 0 0 0 0 0 0 0 0 0 0 0 0 -0 -0 -0 -1 -1 -1 -0 -1 -1 -1 -1 -1 -1 -1 -1 -1 -1 -1 -2 -2 -2 -3 -3 -3 -3 -3 -3 -4
-0 -0 -0 -0 -1 -1 -1 -1 -0 -0 -0 -0 -0 -0 -1 -1 -1 -1 -1 -1 -1 -1 -1 -1 -1 -1 -1 -1 -1 -1 -2 -2 -2 -2 -2 -3 -3 -3 -3 -3 -4 -4 -4 -4
-0 -1 -1 -1 -1 -1 -1 -1 -1 -1 -1 -1 -1 -1 -1 -2 -2 -2 -2 -2 -2 -2 -2 -2 -2 -2 -2 -2 -2 -2 -2 -2 -2 -3 -3 -3 -3 -3 -4 -4 -4 -5 -5 -5
-1 -1 -1 -1 -1 -1 -1 -1 -1 -2 -2 -2 -2 -2 -2 -2 -2 -2 -2 -2 -2 -2 -2 -2 -2 -2 -2 -2 -2 -2 -3 -3 -3 -3 -3 -3 -4 -4 -4 -5 -5 -5 -5 -6
-2 -2 -2 -2 -2 -2 -2 -2 -2 -2 -2 -2 -2 -2 -2 -2 -3 -3 -3 -3 -2 -3 -3 -3 -3 -3 -3 -3 -3 -3 -3 -3 -4 -4 -4 -4 -5 -5 -5 -5 -5 -6 -6 -6
-2 -2 -2 -2 -2 -2 -2 -2 -2 -3 -3 -3 -3 -3 -3 -3 -3 -3 -3 -3 -3 -3 -3 -3 -3 -3 -3 -3 -3 -4 -4 -4 -4 -4 -5 -5 -5 -5 -6 -6 -6 -6 -6 -6
-3 -3 -3 -3 -3 -3 -3 -3 -3 -3 -3 -3 -3 -3 -3 -3 -3 -3 -3 -3 -3 -4 -4 -4 -4 -4 -4 -4 -4 -4 -4 -4 -5 -5 -5 -5 -6 -6 -6 -6 -6 -6 -7 -7
-4 -4 -4 -4 -4 -4 -3 -3 -3 -3 -3 -3 -4 -4 -4 -4 -4 -4 -4 -4 -4 -4 -4 -4 -4 -4 -4 -4 -5 -5 -5 -5 -5 -5 -6 -6 -6 -6 -7 -7 -7 -7 -7 -7
-4 -4 -4 -4 -4 -4 -4 -4 -4 -4 -4 -4 -4 -4 -4 -4 -4 -4 -4 -4 -4 -4 -4 -4 -5 -5 -5 -5 -5 -5 -5 -6 -6 -6 -6 -6 -7 -7 -7 -7 -7 -7 -7 -7
-5 -5 -5 -5 -5 -5 -5 -5 -5 -5 -5 -4 -4 -4 -4 -5 -5 -5 -5 -5 -5 -5 -5 -5 -5 -5 -5 -6 -6 -6 -6 -6 -6 -7 -7 -7 -7 -7 -7 -7 -7 -7 -8 -8
-5 -5 -5 -5 -5 -5 -5 -5 -5 -5 -5 -5 -5 -5 -5 -5 -5 -5 -5 -5 -5 -5 -6 -6 -6 -6 -6 -6 -6 -6 -7 -7 -7 -7 -7 -7 -7 -7 -7 -8 -8 -8 -8 -8
Wind_Speed
8 8 6 8 10 8 10 10 10 10 11 13 9 8 7 5 4 4 4 5 7 7 6 6 5 5 6 5 5 5 5 5 5 4 4 3 3 3 3 3 4 4 3 3
6 6 6 9 11 11 11 10 12 12 14 11 7 4 4 5 5 6 6 6 6 7 7 7 7 6 6 6 5 5 6 5 4 4 4 4 3 3 3 3 3 3 3 3
5 5 5 8 8 10 8 8 8 12 12 6 4 5 5 5 5 6 6 6 6 7 8 8 8 7 7 6 5 5 5 5 4 4 4 4 3 3 3 3 3 3 4 4
3 3 6 7 3 6 7 7 7 7 6 5 6 5 3 3 4 5 5 5 6 6 6 6 5 5 5 5 5 5 5 5 4 4 4 3 3 3 4 3 3 4 4 5
2 4 8 8 4 3 4 5 4 6 6 5 3 3 4 3 3 5 5 5 5 5 5 5 5 5 5 4 4 5 5 5 5 5 4 4 4 4 4 3 3 4 4 4
4 4 6 6 3 1 2 3 3 2 3 2 2 2 5 4 2 3 3 2 3 3 3 4 4 5 5 5 5 6 6 6 5 5 5 5 5 4 3 3 4 4 4 5
6 7 8 6 3 1 2 4 3 2 2 1 3 5 5 4 3 2 2 2 2 3 3 4 4 5 5 5 7 6 5 5 4 5 5 5 4 3 3 3 3 3 5 5
5 6 8 3 3 3 4 3 2 2 3 3 5 5 4 4 3 2 2 2 2 2 3 3 4 5 5 6 6 4 4 4 4 4 4 3 3 3 3 3 3 4 4 5
8 8 4 2 4 4 3 4 4 4 5 4 5 5 5 4 4 4 3 3 2 3 3 3 3 5 6 6 4 4 4 5 4 4 4 4 4 4 3 3 3 4 4 5
5 7 6 5 4 5 4 5 6 5 5 5 5 6 6 5 4 4 4 3 3 3 3 4 4 5 6 5 4 5 5 5 4 4 4 3 3 4 4 4 4 4 5 5
6 7 7 6 5 5 4 4 5 5 5 5 6 6 6 5 6 5 5 4 3 4 5 6 5 5 5 4 5 5 5 5 4 4 4 4 4 4 5 6 6 6 5 5
8 7 7 8 6 5 6 7 6 6 6 6 6 7 6 6 6 5 5 4 4 5 5 5 5 5 5 5 5 6 5 5 4 4 4 3 3 4 6 7 9 10 9 8
10 9 8 9 7 6 7 7 6 6 7 7 6 6 6 6 5 5 5 5 5 5 5 5 5 5 5 4 5 6 6 5 4 4 4 4 3 3 4 5 6 8 9 10
6 5 7 7 8 7 7 6 6 6 6 5 5 4 4 4 4 4 5 5 4 4 5 4 4 5 4 4 4 5 5 5 5 4 4 4 4 4 4 4 5 5 6 9
7 6 8 8 7 6 5 4 4 5 4 4 4 3 3 4 4 5 4 3 3 3 4 3 4 5 3 3 4 5 4 4 4 4 4 4 3 3 4 5 5 6 5 6
6 6 5 5 6 6 5 5 5 6 5 5 4 4 4 3 3 3 2 2 2 3 3 3 4 4 3 3 3 3 4 5 4 3 3 3 3 4 4 5 5 5 6 6
5 5 5 6 6 6 5 5 5 5 5 5 5 4 2 1 1 2 2 2 2 3 3 3 4 4 3 3 3 3 3 3 4 3 3 4 4 5 5 5 5 6 6 7
5 6 5 5 5 5 5 4 4 4 4 4 3 2 1 2 2 3 2 2 2 2 3 3 3 3 2 2 2 2 3 3 3 3 3 4 4 4 5 5 6 7 7 7
3 4 4 4 4 4 3 3 3 3 3 2 2 2 2 2 2 2 1 1 2 3 4 3 4 3 3 3 2 2 2 3 3 3 3 5 5 4 5 6 6 6 6 6
3 3 3 3 3 2 3 3 3 3 3 2 1 1 2 2 2 1 1 2 3 3 4 4 3 3 3 3 2 2 3 3 3 3 4 4 5 5 5 6 6 6 6 6
4 4 4 4 4 4 3 3 2 3 3 2 1 2 3 3 2 1 2 3 4 3 3 4 3 3 3 3 3 2 3 3 3 4 4 4 5 5 5 6 6 6 6 6
4 4 4 4 4 4 4 3 2 2 3 3 2 2 2 3 3 3 3 4 5 5 3 3 3 4 5 5 2 3 3 3 4 4 4 4 5 5 6 6 6 6 6 6
4 3 4 4 4 4 4 4 3 3 3 3 3 3 3 4 3 3 5 4 3 6 4 3 5 7 8 4 2 3 3 4 4 4 4 5 5 5 6 6 6 6 6 6
4 4 4 4 3 3 4 5 4 3 3 4 4 4 4 4 4 3 4 6 8 8 4 6 9 9 7 3 3 3 3 4 4 5 5 5 5 5 5 6 6 6 6 6
4 4 4 4 4 4 4 5 4 4 4 4 4 4 4 3 4 4 4 5 7 8 5 6 9 9 5 3 3 4 4 5 5 5 5 5 5 5 5 5 6 6 6 6
4 4 4 4 4 4 4 4 4 4 4 5 4 4 3 3 4 4 4 5 6 7 5 4 5 6 4 4 4 5 5 5 6 5 5 5 6 6 6 6 7 6 6 6
4 4 4 4 4 4 4 4 4 5 5 5 6 5 4 4 4 4 5 5 5 5 5 4 4 4 4 4 5 5 5 5 5 5 5 5 5 6 6 7 6 6 6 6
Wind_Direction
252 258 245 245 247 223 212 215 224 247 253 265 266 258 252 244 229 217 214 202 196 195 196 194 191 190 187 187 181 174 171 180 195 196 192 194 199 207 212 212 216 218 222 234
279 267 261 263 253 235 230 231 240 259 268 264 270 259 253 246 226 219 219 212 205 199 196 198 197 195 191 191 187 174 179 192 193 187 190 199 207 209 211 216 218 215 224 234
275 297 315 275 241 219 221 220 214 239 254 272 276 254 244 239 228 226 225 216 209 205 203 203 201 194 193 193 180 174 185 193 190 189 198 207 207 204 213 219 215 225 235 238
270 333 256 250 246 208 221 246 233 245 267 264 257 264 256 233 225 237 231 222 216 208 205 203 195 189 183 176 176 183 192 199 198 195 205 207 204 216 221 217 219 228 236 240
204 253 275 292 267 199 202 268 252 242 271 291 306 346 314 278 236 232 232 227 217 206 197 189 186 178 166 176 181 189 202 207 206 199 205 207 217 228 222 217 230 233 239 240
192 229 251 260 279 226 131 278 295 249 272 301 35 345 285 302 291 260 250 231 212 191 171 178 188 168 168 187 193 208 212 211 205 199 204 214 223 227 219 217 232 240 251 247
210 235 262 264 281 92 182 264 309 286 269 241 227 236 268 298 299 278 251 242 205 179 188 199 184 168 183 198 213 218 210 205 203 203 209 217 221 223 224 226 237 250 261 264
188 218 254 244 131 183 232 275 286 276 265 256 256 269 277 283 279 278 269 251 208 194 214 214 186 177 198 219 223 211 201 204 210 212 214 212 212 228 228 222 238 256 266 278
199 221 251 211 211 242 227 248 258 253 258 251 256 263 266 267 266 267 257 246 229 207 223 235 210 195 210 227 212 201 201 213 220 219 217 209 208 222 233 227 233 250 256 270
250 266 276 274 270 274 248 246 257 255 254 248 253 258 258 258 260 258 256 246 234 218 228 244 235 222 222 223 203 196 208 219 219 217 225 223 216 214 219 229 236 245 251 261
257 276 292 280 264 267 277 271 274 275 260 252 252 259 252 255 256 253 254 250 231 223 232 242 242 237 231 217 196 203 214 220 220 221 225 231 230 225 225 227 224 232 241 244
248 251 250 268 275 278 274 270 266 268 273 268 248 251 252 252 251 247 246 244 239 238 239 245 242 243 237 217 199 201 215 221 222 223 226 228 240 267 253 245 257 257 257 257
255 268 261 270 276 270 263 266 264 259 259 268 266 255 251 254 253 246 245 240 241 244 246 247 245 248 242 219 201 204 215 222 222 223 225 228 230 242 275 288 278 273 269 271
260 274 276 274 274 276 271 270 268 269 266 263 264 264 259 258 258 249 247 247 250 252 251 247 246 252 247 220 206 213 219 226 225 226 227 229 231 236 242 262 285 288 282 281
270 261 260 274 280 283 283 281 282 283 282 282 274 266 260 259 261 262 265 261 255 253 253 250 252 261 256 222 211 216 219 225 225 225 225 228 232 238 244 250 262 275 288 291
281 284 277 278 281 287 292 286 280 281 281 278 278 275 269 266 274 283 282 255 242 253 254 250 255 261 257 232 220 223 228 236 233 226 227 231 235 242 249 254 260 267 273 279
276 283 286 292 291 289 286 281 275 279 285 283 281 281 281 287 302 305 306 296 266 264 264 259 266 276 264 238 222 225 229 238 241 237 233 237 242 246 251 255 261 267 270 275
253 259 263 270 277 283 289 290 286 285 283 281 288 288 273 262 269 280 293 316 332 319 301 282 279 286 278 257 233 224 224 232 232 233 241 246 251 248 253 258 263 268 275 280
295 280 280 278 274 272 278 285 292 298 300 299 296 286 280 269 266 276 300 322 313 304 305 303 302 296 282 271 253 223 225 236 246 247 247 262 268 258 258 261 265 268 272 276
325 317 314 314 313 298 294 300 302 306 304 297 295 303 304 298 289 278 283 279 271 270 288 302 304 291 281 273 265 230 231 237 246 254 254 252 256 260 261 265 269 272 274 274
327 327 329 329 327 331 323 313 311 309 314 311 273 267 277 289 291 277 276 291 293 287 287 296 299 288 281 277 274 245 242 249 256 259 262 263 264 267 270 271 273 275 274 275
326 329 331 332 334 330 328 328 320 309 316 316 305 289 287 293 297 290 265 261 279 296 298 284 282 285 289 289 264 252 252 254 258 261 263 266 269 272 273 273 273 274 273 272
317 317 319 318 311 310 319 322 313 302 297 296 292 286 279 278 275 276 289 286 282 295 298 277 288 296 299 294 271 263 262 261 261 262 263 266 268 270 273 275 275 274 272 272
315 314 309 308 317 324 319 315 315 308 295 291 285 279 277 286 288 265 261 288 301 302 291 288 298 301 305 293 272 267 266 265 265 264 264 265 266 267 269 273 275 274 273 274
308 310 314 321 322 310 302 305 310 307 304 298 293 288 277 260 264 281 283 284 295 302 293 294 300 303 300 275 267 264 265 264 266 266 260 264 266 267 268 269 269 270 271 270
305 307 304 298 293 294 299 301 301 301 301 302 302 297 293 287 278 280 283 282 284 296 294 286 289 294 282 273 269 267 265 275 282 276 267 266 263 264 266 267 266 266 268 269
304 301 302 306 304 298 294 290 289 294 296 293 296 298 299 298 296 293 291 290 289 287 285 283 281 278 275 274 273 271 269 269 269 268 268 266 265 264 265 266 267 267 267 268
Height
1505 1501 1501 1500 1497 1497 1499 1498 1498 1488 1484 1475 1472 1471 1469 1468 1468 1468 1468 1469 1470 1471 1472 1474 1476 1477 1479 1480 1482 1483 1484 1484 1485 1486 1487 1487 1487 1487 1487 1487 1487 1487 1487 1487
1503 1498 1498 1495 1491 1492 1491 1490 1488 1484 1478 1469 1469 1468 1467 1467 1466 1466 1466 1467 1468 1469 1471 1472 1473 1475 1476 1477 1479 1480 1480 1481 1482 1482 1483 1483 1483 1483 1483 1483 1483 1483 1482 1482
1506 1500 1495 1491 1481 1482 1483 1480 1479 1478 1472 1468 1468 1466 1465 1464 1464 1464 1465 1465 1466 1467 1468 1469 1471 1472 1473 1474 1475 1476 1477 1477 1478 1478 1478 1479 1479 1479 1479 1479 1478 1478 1478 1478
1507 1501 1496 1480 1473 1474 1475 1473 1473 1471 1468 1466 1465 1464 1463 1463 1463 1462 1462 1463 1464 1464 1465 1467 1468 1469 1470 1471 1472 1473 1473 1473 1474 1474 1474 1475 1475 1475 1475 1475 1474 1474 1473 1473
1507 1503 1491 1478 1472 1471 1473 1472 1470 1469 1467 1465 1464 1463 1462 1461 1461 1461 1461 1461 1461 1462 1463 1464 1465 1466 1467 1468 1468 1469 1469 1470 1470 1470 1470 1470 1470 1470 1470 1470 1470 1469 1469 1468
1502 1497 1488 1475 1470 1468 1471 1473 1468 1467 1467 1466 1465 1467 1463 1460 1459 1459 1459 1459 1459 1460 1460 1461 1462 1463 1463 1464 1465 1465 1466 1466 1466 1466 1466 1466 1466 1466 1466 1466 1465 1465 1464 1464
1498 1495 1484 1473 1469 1469 1475 1472 1468 1466 1465 1465 1465 1464 1462 1460 1458 1458 1457 1457 1457 1458 1458 1459 1459 1460 1460 1460 1461 1462 1462 1462 1462 1462 1462 1462 1462 1462 1462 1461 1461 1460 1459 1459
1495 1493 1483 1469 1469 1472 1470 1467 1466 1465 1464 1463 1462 1460 1459 1458 1457 1456 1455 1455 1455 1455 1455 1456 1456 1456 1456 1457 1457 1458 1458 1458 1458 1458 1458 1458 1458 1458 1457 1456 1455 1455 1454 1453
1481 1476 1469 1467 1467 1467 1466 1465 1464 1463 1462 1461 1459 1458 1457 1456 1455 1454 1453 1452 1452 1452 1452 1452 1452 1453 1452 1453 1453 1453 1453 1453 1453 1453 1453 1453 1453 1453 1452 1451 1451 1450 1448 1447
1475 1469 1466 1465 1464 1464 1464 1463 1461 1460 1459 1458 1456 1454 1453 1452 1451 1450 1450 1449 1449 1448 1448 1448 1448 1448 1448 1448 1448 1448 1448 1448 1448 1448 1448 1448 1448 1448 1447 1446 1445 1444 1443 1442
1471 1466 1463 1461 1461 1460 1460 1459 1457 1456 1455 1454 1452 1450 1449 1448 1447 1446 1446 1445 1445 1444 1444 1443 1444 1444 1443 1443 1443 1443 1443 1443 1443 1443 1443 1443 1443 1442 1442 1441 1441 1439 1438 1437
1465 1462 1462 1459 1458 1457 1456 1454 1453 1452 1450 1449 1448 1446 1445 1443 1442 1442 1441 1441 1440 1439 1439 1439 1439 1438 1438 1438 1438 1438 1438 1438 1438 1438 1438 1438 1437 1437 1436 1436 1435 1434 1433 1431
1458 1457 1456 1454 1453 1452 1451 1449 1448 1447 1445 1444 1443 1442 1440 1438 1437 1437 1436 1436 1435 1434 1434 1434 1434 1433 1433 1434 1433 1433 1433 1433 1433 1433 1433 1433 1432 1431 1430 1430 1430 1429 1427 1426
1454 1453 1451 1449 1448 1447 1446 1444 1443 1442 1440 1439 1438 1437 1435 1434 1433 1432 1431 1431 1430 1430 1429 1429 1429 1429 1429 1429 1429 1429 1429 1429 1429 1428 1428 1428 1427 1426 1425 1424 1423 1422 1422 1420
1448 1448 1446 1444 1443 1442 1440 1439 1438 1436 1435 1434 1433 1432 1431 1429 1428 1427 1427 1426 1426 1425 1425 1425 1425 1425 1425 1424 1424 1424 1424 1424 1424 1424 1423 1423 1422 1421 1420 1419 1418 1416 1415 1414
1444 1443 1441 1440 1438 1437 1436 1434 1433 1432 1431 1430 1429 1427 1426 1425 1424 1424 1423 1422 1421 1421 1421 1421 1421 1421 1420 1420 1420 1420 1420 1420 1419 1419 1419 1418 1417 1416 1415 1414 1412 1410 1409 1407
1440 1438 1436 1435 1434 1433 1431 1430 1429 1428 1427 1426 1425 1424 1423 1422 1421 1420 1419 1419 1418 1418 1418 1418 1417 1417 1416 1416 1416 1415 1415 1415 1415 1414 1414 1413 1412 1411 1410 1408 1407 1405 1403 1402
1436 1435 1434 1432 1431 1429 1428 1427 1426 1424 1423 1422 1422 1421 1420 1419 1418 1417 1417 1416 1416 1415 1415 1414 1414 1413 1413 1412 1412 1411 1411 1410 1410 1409 1409 1408 1407 1406 1404 1403 1401 1399 1397 1396
1433 1432 1431 1429 1428 1427 1425 1424 1423 1422 1421 1420 1419 1418 1417 1416 1416 1415 1415 1414 1413 1412 1412 1411 1410 1410 1409 1408 1408 1407 1406 1406 1405 1405 1404 1402 1401 1400 1399 1397 1395 1393 1392 1390
1431 1430 1429 1427 1426 1425 1423 1422 1421 1420 1419 1418 1417 1416 1415 1414 1414 1413 1412 1412 1411 1410 1409 1408 1407 1407 1406 1405 1404 1403 1402 1401 1401 1400 1398 1397 1396 1394 1393 1391 1390 1388 1386 1384
1430 1428 1427 1426 1424 1423 1422 1420 1419 1418 1417 1416 1415 1414 1413 1412 1412 1411 1410 1409 1408 1408 1407 1406 1404 1403 1402 1401 1400 1399 1398 1397 1396 1394 1393 1391 1390 1388 1387 1385 1384 1382 1380 1378
1429 1427 1426 1424 1423 1421 1420 1419 1418 1416 1415 1414 1413 1412 1411 1410 1409 1408 1407 1407 1406 1405 1403 1402 1401 1400 1398 1397 1396 1395 1393 1392 1391 1389 1388 1386 1384 1383 1381 1379 1378 1376 1374 1372
1427 1426 1424 1423 1421 1420 1418 1417 1416 1415 1413 1412 1411 1410 1409 1408 1406 1405 1404 1403 1402 1401 1399 1398 1397 1395 1394 1393 1391 1390 1389 1387 1386 1384 1382 1381 1379 1377 1376 1374 1372 1370 1368 1366
1425 1424 1422 1421 1419 1418 1416 1415 1414 1412 1411 1410 1408 1407 1406 1404 1403 1402 1401 1399 1398 1397 1395 1394 1392 1391 1389 1388 1386 1385 1384 1382 1380 1379 1377 1375 1374 1372 1370 1368 1366 1364 1362 1361
1423 1421 1420 1418 1417 1415 1414 1412 1411 1409 1408 1406 1405 1404 1402 1401 1399 1398 1396 1395 1393 1392 1390 1389 1387 1386 1384 1383 1381 1380 1378 1377 1375 1373 1372 1370 1368 1367 1365 1363 1361 1359 1357 1355
1420 1419 1417 1416 1414 1413 1411 1409 1407 1405 1404 1402 1401 1400 1398 1397 1395 1393 1392 1390 1388 1387 1385 1384 1382 1380 1379 1377 1376 1374 1373 1371 1369 1368 1366 1364 1363 1361 1359 1357 1355 1353 1351 1349
1418 1416 1414 1413 1411 1409 1407 1405 1404 1402 1400 1398 1396 1395 1394 1392 1390 1388 1387 1385 1383 1381 1380 1378 1377 1375 1373 1372 1370 1369 1367 1365 1364 1362 1360 1359 1357 1355 1353 1351 1350 1348 1346 1344